[Date Prev][Date Next][Thread Prev][Thread Next] - [Date Index][Thread Index][Author Index]
2 Line ISS Keps 7-20
- Subject: [sarex] 2 Line ISS Keps 7-20
- From: "Dave Larsen PhD" <doc@xxxxxxxxxxx>
- Date: Tue, 20 Jul 2004 04:18:07 -0700
ISS
1 25544U 98067A 04202.15321759 .00018054 00000-0 15216-3 0 2608
2 25544 51.6305 157.5635 0006336 25.1341 166.1232 15.69878911323495
----
Via the sarex mailing list at AMSAT.ORG courtesy of AMSAT-NA.
To unsubscribe, send "unsubscribe sarex" to Majordomo@amsat.org
AMSAT Home